Year,Month,Day,Hour,Minute,Value (Times are PST for temperature in C)
2020,04,27,00,00,9.30
2020,04,27,00,01,9.30
2020,04,27,00,02,9.30
2020,04,27,00,03,9.30
2020,04,27,00,04,9.30
2020,04,27,00,05,9.30
2020,04,27,00,06,9.40
2020,04,27,00,07,9.40
2020,04,27,00,08,9.40
2020,04,27,00,09,9.40
2020,04,27,00,10,9.40
2020,04,27,00,11,9.40
2020,04,27,00,12,9.30
2020,04,27,00,13,9.30
2020,04,27,00,14,9.30
2020,04,27,00,15,9.30
2020,04,27,00,16,9.30
2020,04,27,00,17,9.30
2020,04,27,00,18,9.30
2020,04,27,00,19,9.30
2020,04,27,00,20,9.30
2020,04,27,00,21,9.30
2020,04,27,00,22,9.30
2020,04,27,00,23,9.20
2020,04,27,00,24,9.20
2020,04,27,00,25,9.20
2020,04,27,00,26,9.20
2020,04,27,00,27,9.20
2020,04,27,00,28,9.20
2020,04,27,00,29,9.20
2020,04,27,00,30,9.20
2020,04,27,00,31,9.20
2020,04,27,00,32,9.20
2020,04,27,00,33,9.20
2020,04,27,00,34,9.20
2020,04,27,00,35,9.20
2020,04,27,00,36,9.20
2020,04,27,00,37,9.30
2020,04,27,00,38,9.30
2020,04,27,00,39,9.30
2020,04,27,00,40,9.30
2020,04,27,00,41,9.30
2020,04,27,00,42,9.20
2020,04,27,00,43,9.20
2020,04,27,00,44,9.20
2020,04,27,00,45,9.20
2020,04,27,00,46,9.20
2020,04,27,00,47,9.20
2020,04,27,00,48,9.20
2020,04,27,00,49,9.20
2020,04,27,00,50,9.20
2020,04,27,00,51,9.20
2020,04,27,00,52,9.20
2020,04,27,00,53,9.20
2020,04,27,00,54,9.10
2020,04,27,00,55,9.10
2020,04,27,00,56,9.10
2020,04,27,00,57,9.10
2020,04,27,00,58,9.10
2020,04,27,00,59,9.00
2020,04,27,01,00,9.00
2020,04,27,01,01,9.00
2020,04,27,01,02,8.90
2020,04,27,01,03,8.90
2020,04,27,01,04,8.90
2020,04,27,01,05,8.90
2020,04,27,01,06,8.90
2020,04,27,01,07,8.90
2020,04,27,01,08,8.90
2020,04,27,01,09,8.90
2020,04,27,01,10,8.90
2020,04,27,01,11,8.90
2020,04,27,01,12,8.90
2020,04,27,01,13,8.90
2020,04,27,01,14,8.90
2020,04,27,01,15,8.90
2020,04,27,01,16,8.80
2020,04,27,01,17,8.80
2020,04,27,01,18,8.90
2020,04,27,01,19,8.90
2020,04,27,01,20,8.90
2020,04,27,01,21,8.90
2020,04,27,01,22,8.90
2020,04,27,01,23,8.90
2020,04,27,01,24,8.90
2020,04,27,01,25,8.90
2020,04,27,01,26,8.90
2020,04,27,01,27,8.90
2020,04,27,01,28,8.90
2020,04,27,01,29,8.90
2020,04,27,01,30,8.90
2020,04,27,01,31,8.90
2020,04,27,01,32,8.90
2020,04,27,01,33,8.90
2020,04,27,01,34,8.90
2020,04,27,01,35,9.00
2020,04,27,01,36,9.00
2020,04,27,01,37,9.00
2020,04,27,01,38,9.00
2020,04,27,01,39,9.00
2020,04,27,01,40,9.00
2020,04,27,01,41,9.00
2020,04,27,01,42,9.00
2020,04,27,01,43,9.00
2020,04,27,01,44,9.00
2020,04,27,01,45,9.10
2020,04,27,01,46,9.10
2020,04,27,01,47,9.10
2020,04,27,01,48,9.10
2020,04,27,01,49,9.10
2020,04,27,01,50,9.10
2020,04,27,01,51,9.10
2020,04,27,01,52,9.10
2020,04,27,01,53,9.10
2020,04,27,01,54,9.10
2020,04,27,01,55,9.10
2020,04,27,01,56,9.10
2020,04,27,01,57,9.10
2020,04,27,01,58,9.10
2020,04,27,01,59,9.10
2020,04,27,02,00,9.00
2020,04,27,02,01,9.00
2020,04,27,02,02,9.00
2020,04,27,02,03,9.00
2020,04,27,02,04,9.00
2020,04,27,02,05,9.00
2020,04,27,02,06,9.00
2020,04,27,02,07,8.90
2020,04,27,02,08,8.90
2020,04,27,02,09,8.90
2020,04,27,02,10,8.90
2020,04,27,02,11,8.90
2020,04,27,02,12,8.90
2020,04,27,02,13,8.90
2020,04,27,02,14,8.90
2020,04,27,02,15,8.90
2020,04,27,02,16,8.90
2020,04,27,02,17,8.90
2020,04,27,02,18,9.00
2020,04,27,02,19,9.00
2020,04,27,02,20,9.00
2020,04,27,02,21,9.00
2020,04,27,02,22,9.00
2020,04,27,02,23,9.00
2020,04,27,02,24,8.90
2020,04,27,02,25,8.90
2020,04,27,02,26,8.90
2020,04,27,02,27,8.90
2020,04,27,02,28,8.90
2020,04,27,02,29,8.90
2020,04,27,02,30,8.90
2020,04,27,02,31,8.90
2020,04,27,02,32,8.80
2020,04,27,02,33,8.80
2020,04,27,02,34,8.80
2020,04,27,02,35,8.80
2020,04,27,02,36,8.70
2020,04,27,02,37,8.70
2020,04,27,02,38,8.70
2020,04,27,02,39,8.70
2020,04,27,02,40,8.70
2020,04,27,02,41,8.70
2020,04,27,02,42,8.70
2020,04,27,02,43,8.70
2020,04,27,02,44,8.70
2020,04,27,02,45,8.70
2020,04,27,02,46,8.70
2020,04,27,02,47,8.70
2020,04,27,02,48,8.70
2020,04,27,02,49,8.70
2020,04,27,02,50,8.70
2020,04,27,02,51,8.60
2020,04,27,02,52,8.60
2020,04,27,02,53,8.60
2020,04,27,02,54,8.60
2020,04,27,02,55,8.60
2020,04,27,02,56,8.60
2020,04,27,02,57,8.60
2020,04,27,02,58,8.50
2020,04,27,02,59,8.50
2020,04,27,03,00,8.50
2020,04,27,03,01,8.50
2020,04,27,03,02,8.50
2020,04,27,03,03,8.50
2020,04,27,03,04,8.50
2020,04,27,03,05,8.50
2020,04,27,03,06,8.50
2020,04,27,03,07,8.50
2020,04,27,03,08,8.50
2020,04,27,03,09,8.50
2020,04,27,03,10,8.50
2020,04,27,03,11,8.50
2020,04,27,03,12,8.50
2020,04,27,03,13,8.50
2020,04,27,03,14,8.50
2020,04,27,03,15,8.50
2020,04,27,03,16,8.50
2020,04,27,03,17,8.50
2020,04,27,03,18,8.50
2020,04,27,03,19,8.50
2020,04,27,03,20,8.50
2020,04,27,03,21,8.50
2020,04,27,03,22,8.50
2020,04,27,03,23,8.50
2020,04,27,03,24,8.50
2020,04,27,03,25,8.50
2020,04,27,03,26,8.50
2020,04,27,03,27,8.50
2020,04,27,03,28,8.50
2020,04,27,03,29,8.50
2020,04,27,03,30,8.50
2020,04,27,03,31,8.50
2020,04,27,03,32,8.50
2020,04,27,03,33,8.40
2020,04,27,03,34,8.50
2020,04,27,03,35,8.50
2020,04,27,03,36,8.50
2020,04,27,03,37,8.50
2020,04,27,03,38,8.50
2020,04,27,03,39,8.60
2020,04,27,03,40,8.60
2020,04,27,03,41,8.50
2020,04,27,03,42,8.50
2020,04,27,03,43,8.50
2020,04,27,03,44,8.50
2020,04,27,03,45,8.50
2020,04,27,03,46,8.50
2020,04,27,03,47,8.50
2020,04,27,03,48,8.60
2020,04,27,03,49,8.60
2020,04,27,03,50,8.60
2020,04,27,03,51,8.60
2020,04,27,03,52,8.60
2020,04,27,03,53,8.60
2020,04,27,03,54,8.60
2020,04,27,03,55,8.50
2020,04,27,03,56,8.60
2020,04,27,03,57,8.60
2020,04,27,03,58,8.60
2020,04,27,03,59,8.60
2020,04,27,04,00,8.60
2020,04,27,04,01,8.60
2020,04,27,04,02,8.60
2020,04,27,04,03,8.60
2020,04,27,04,04,8.60
2020,04,27,04,05,8.60
2020,04,27,04,06,8.60
2020,04,27,04,07,8.60
2020,04,27,04,08,8.60
2020,04,27,04,09,8.60
2020,04,27,04,10,8.60
2020,04,27,04,11,8.60
2020,04,27,04,12,8.60
2020,04,27,04,13,8.60
2020,04,27,04,14,8.60
2020,04,27,04,15,8.60
2020,04,27,04,16,8.60
2020,04,27,04,17,8.60
2020,04,27,04,18,8.60
2020,04,27,04,19,8.60
2020,04,27,04,20,8.60
2020,04,27,04,21,8.60
2020,04,27,04,22,8.60
2020,04,27,04,23,8.60
2020,04,27,04,24,8.50
2020,04,27,04,25,8.50
2020,04,27,04,26,8.50
2020,04,27,04,27,8.50
2020,04,27,04,28,8.50
2020,04,27,04,29,8.50
2020,04,27,04,30,8.40
2020,04,27,04,31,8.40
2020,04,27,04,32,8.40
2020,04,27,04,33,8.40
2020,04,27,04,34,8.40
2020,04,27,04,35,8.40
2020,04,27,04,36,8.40
2020,04,27,04,37,8.40
2020,04,27,04,38,8.40
2020,04,27,04,39,8.40
2020,04,27,04,40,8.40
2020,04,27,04,41,8.50
2020,04,27,04,42,8.50
2020,04,27,04,43,8.50
2020,04,27,04,44,8.50
2020,04,27,04,45,8.50
2020,04,27,04,46,8.50
2020,04,27,04,47,8.50
2020,04,27,04,48,8.50
2020,04,27,04,49,8.50
2020,04,27,04,50,8.50
2020,04,27,04,51,8.50
2020,04,27,04,52,8.50
2020,04,27,04,53,8.60
2020,04,27,04,54,8.60
2020,04,27,04,55,8.60
2020,04,27,04,56,8.60
2020,04,27,04,57,8.60
2020,04,27,04,58,8.60
2020,04,27,04,59,8.60
2020,04,27,05,00,8.60
2020,04,27,05,01,8.60
2020,04,27,05,02,8.60
2020,04,27,05,03,8.70
2020,04,27,05,04,8.70
2020,04,27,05,05,8.70
2020,04,27,05,06,8.70
2020,04,27,05,07,8.70
2020,04,27,05,08,8.60
2020,04,27,05,09,8.60
2020,04,27,05,10,8.60
2020,04,27,05,11,8.60
2020,04,27,05,12,8.60
2020,04,27,05,13,8.60
2020,04,27,05,14,8.60
2020,04,27,05,15,8.60
2020,04,27,05,16,8.60
2020,04,27,05,17,8.60
2020,04,27,05,18,8.60
2020,04,27,05,19,8.60
2020,04,27,05,20,8.60
2020,04,27,05,21,8.60
2020,04,27,05,22,8.60
2020,04,27,05,23,8.60
2020,04,27,05,24,8.60
2020,04,27,05,25,8.60
2020,04,27,05,26,8.60
2020,04,27,05,27,8.60
2020,04,27,05,28,8.60
2020,04,27,05,29,8.60
2020,04,27,05,30,8.60
2020,04,27,05,31,8.60
2020,04,27,05,32,8.60
2020,04,27,05,33,8.50
2020,04,27,05,34,8.50
2020,04,27,05,35,8.60
2020,04,27,05,36,8.60
2020,04,27,05,37,8.60
2020,04,27,05,38,8.60
2020,04,27,05,39,8.60
2020,04,27,05,40,8.70
2020,04,27,05,41,8.70
2020,04,27,05,42,8.80
2020,04,27,05,43,8.80
2020,04,27,05,44,8.90
2020,04,27,05,45,8.90
2020,04,27,05,46,8.90
2020,04,27,05,47,9.00
2020,04,27,05,48,9.00
2020,04,27,05,49,9.00
2020,04,27,05,50,9.00
2020,04,27,05,51,9.00
2020,04,27,05,52,9.00
2020,04,27,05,53,9.00
2020,04,27,05,54,9.00
2020,04,27,05,55,9.10
2020,04,27,05,56,9.10
2020,04,27,05,57,9.10
2020,04,27,05,58,9.10
2020,04,27,05,59,9.10
2020,04,27,06,00,9.20
2020,04,27,06,01,9.20
2020,04,27,06,02,9.20
2020,04,27,06,03,9.20
2020,04,27,06,04,9.20
2020,04,27,06,05,9.20
2020,04,27,06,06,9.30
2020,04,27,06,07,9.30
2020,04,27,06,08,9.30
2020,04,27,06,09,9.30
2020,04,27,06,10,9.30
2020,04,27,06,11,9.30
2020,04,27,06,12,9.30
2020,04,27,06,13,9.40
2020,04,27,06,14,9.40
2020,04,27,06,15,9.40
2020,04,27,06,16,9.50
2020,04,27,06,17,9.50
2020,04,27,06,18,9.50
2020,04,27,06,19,9.60
2020,04,27,06,20,9.60
2020,04,27,06,21,9.60
2020,04,27,06,22,9.60
2020,04,27,06,23,9.60
2020,04,27,06,24,9.60
2020,04,27,06,25,9.70
2020,04,27,06,26,9.70
2020,04,27,06,27,9.70
2020,04,27,06,28,9.70
2020,04,27,06,29,9.70
2020,04,27,06,30,9.70
2020,04,27,06,31,9.70
2020,04,27,06,32,9.70
2020,04,27,06,33,9.80
2020,04,27,06,34,9.80
2020,04,27,06,35,9.80
2020,04,27,06,36,9.80
2020,04,27,06,37,9.80
2020,04,27,06,38,9.80
2020,04,27,06,39,9.80
2020,04,27,06,40,9.80
2020,04,27,06,41,9.80
2020,04,27,06,42,9.80
2020,04,27,06,43,9.90
2020,04,27,06,44,9.90
2020,04,27,06,45,9.90
2020,04,27,06,46,9.90
2020,04,27,06,47,9.90
2020,04,27,06,48,9.90
2020,04,27,06,49,9.90
2020,04,27,06,50,10.00
2020,04,27,06,51,10.10
2020,04,27,06,52,10.10
2020,04,27,06,53,10.10
2020,04,27,06,54,10.10
2020,04,27,06,55,10.10
2020,04,27,06,56,10.20
2020,04,27,06,57,10.20
2020,04,27,06,58,10.20
2020,04,27,06,59,10.20
2020,04,27,07,00,10.20
2020,04,27,07,01,10.30
2020,04,27,07,02,10.30
2020,04,27,07,03,10.30
2020,04,27,07,04,10.30
2020,04,27,07,05,10.30
2020,04,27,07,06,10.30
2020,04,27,07,07,10.30
2020,04,27,07,08,10.30
2020,04,27,07,09,10.40
2020,04,27,07,10,10.40
2020,04,27,07,11,10.40
2020,04,27,07,12,10.40
2020,04,27,07,13,10.40
2020,04,27,07,14,10.40
2020,04,27,07,15,10.40
2020,04,27,07,16,10.40
2020,04,27,07,17,10.60
2020,04,27,07,18,10.60
2020,04,27,07,19,10.60
2020,04,27,07,20,10.60
2020,04,27,07,21,10.60
2020,04,27,07,22,10.60
2020,04,27,07,23,10.60
2020,04,27,07,24,10.60
2020,04,27,07,25,10.60
2020,04,27,07,26,10.60
2020,04,27,07,27,10.60
2020,04,27,07,28,10.60
2020,04,27,07,29,10.60
2020,04,27,07,30,10.70
2020,04,27,07,31,10.70
2020,04,27,07,32,10.70
2020,04,27,07,33,10.70
2020,04,27,07,34,10.70
2020,04,27,07,35,10.70
2020,04,27,07,36,10.70
2020,04,27,07,37,10.70
2020,04,27,07,38,10.70
2020,04,27,07,39,10.80
2020,04,27,07,40,10.80
2020,04,27,07,41,10.80
2020,04,27,07,42,10.80
2020,04,27,07,43,10.80
2020,04,27,07,44,10.80
2020,04,27,07,45,10.80
2020,04,27,07,46,10.80
2020,04,27,07,47,10.90
2020,04,27,07,48,10.90
2020,04,27,07,49,10.90
2020,04,27,07,50,10.90
2020,04,27,07,51,10.90
2020,04,27,07,52,10.90
2020,04,27,07,53,10.90
2020,04,27,07,54,10.90
2020,04,27,07,55,10.90
2020,04,27,07,56,10.90
2020,04,27,07,57,10.90
2020,04,27,07,58,10.90
2020,04,27,07,59,10.90
2020,04,27,08,00,10.90
2020,04,27,08,01,11.00
2020,04,27,08,02,11.10
2020,04,27,08,03,11.10
2020,04,27,08,04,11.10
2020,04,27,08,05,11.10
2020,04,27,08,06,11.10
2020,04,27,08,07,11.10
2020,04,27,08,08,11.10
2020,04,27,08,09,11.20
2020,04,27,08,10,11.20
2020,04,27,08,11,11.20
2020,04,27,08,12,11.20
2020,04,27,08,13,11.20
2020,04,27,08,14,11.20
2020,04,27,08,15,11.30
2020,04,27,08,16,11.30
2020,04,27,08,17,11.30
2020,04,27,08,18,11.30
2020,04,27,08,19,11.40
2020,04,27,08,20,11.40
2020,04,27,08,21,11.40
2020,04,27,08,22,11.40
2020,04,27,08,23,11.40
2020,04,27,08,24,11.40
2020,04,27,08,25,11.40
2020,04,27,08,26,11.40
2020,04,27,08,27,11.50
2020,04,27,08,28,11.60
2020,04,27,08,29,11.60
2020,04,27,08,30,11.60
2020,04,27,08,31,11.60
2020,04,27,08,32,11.60
2020,04,27,08,33,11.60
2020,04,27,08,34,11.60
2020,04,27,08,35,11.60
2020,04,27,08,36,11.60
2020,04,27,08,37,11.60
2020,04,27,08,38,11.60
2020,04,27,08,39,11.60
2020,04,27,08,40,11.60
2020,04,27,08,41,11.60
2020,04,27,08,42,11.70
2020,04,27,08,43,11.70
2020,04,27,08,44,11.70
2020,04,27,08,45,11.80
2020,04,27,08,46,11.80
2020,04,27,08,47,11.80
2020,04,27,08,48,11.80
2020,04,27,08,49,11.80
2020,04,27,08,50,11.80
2020,04,27,08,51,11.80
2020,04,27,08,52,11.80
2020,04,27,08,53,11.90
2020,04,27,08,54,11.90
2020,04,27,08,55,11.90
2020,04,27,08,56,11.90
2020,04,27,08,57,11.90
2020,04,27,08,58,12.00
2020,04,27,08,59,12.00
2020,04,27,09,00,12.10
2020,04,27,09,01,12.10
2020,04,27,09,02,12.20
2020,04,27,09,03,12.30
2020,04,27,09,04,12.30
2020,04,27,09,05,12.30
2020,04,27,09,06,12.30
2020,04,27,09,07,12.30
2020,04,27,09,08,12.30
2020,04,27,09,09,12.30
2020,04,27,09,10,12.30
2020,04,27,09,11,12.30
2020,04,27,09,12,12.30
2020,04,27,09,13,12.30
2020,04,27,09,14,12.30
2020,04,27,09,15,12.30
2020,04,27,09,16,12.30
2020,04,27,09,17,12.30
2020,04,27,09,18,12.30
2020,04,27,09,19,12.30
2020,04,27,09,20,12.30
2020,04,27,09,21,12.30
2020,04,27,09,22,12.30
2020,04,27,09,23,12.30
2020,04,27,09,24,12.30
2020,04,27,09,25,12.30
2020,04,27,09,26,12.30
2020,04,27,09,27,12.30
2020,04,27,10,18,12.80
2020,04,27,10,19,12.80
2020,04,27,10,20,12.70
2020,04,27,10,21,12.60
2020,04,27,10,22,12.60
2020,04,27,10,23,12.60
2020,04,27,10,24,12.60
2020,04,27,10,25,12.60
2020,04,27,10,26,12.60
2020,04,27,10,27,12.70
2020,04,27,10,28,12.80
2020,04,27,10,29,12.80
2020,04,27,10,30,12.80
2020,04,27,10,31,12.80
2020,04,27,10,32,12.90
2020,04,27,10,33,13.00
2020,04,27,10,34,13.00
2020,04,27,10,35,13.00
2020,04,27,10,36,13.10
2020,04,27,10,37,13.20
2020,04,27,10,38,13.20
2020,04,27,10,39,13.20
2020,04,27,10,40,13.20
2020,04,27,10,41,13.30
2020,04,27,10,42,13.30
2020,04,27,10,43,13.30
2020,04,27,10,44,13.30
2020,04,27,10,45,13.30
2020,04,27,10,46,13.20
2020,04,27,10,47,13.20
2020,04,27,10,48,13.10
2020,04,27,10,49,13.10
2020,04,27,10,50,13.10
2020,04,27,10,51,13.20
2020,04,27,10,52,13.20
2020,04,27,10,53,13.20
2020,04,27,10,54,13.30
2020,04,27,10,55,13.30
2020,04,27,10,56,13.30
2020,04,27,10,57,13.20
2020,04,27,10,58,13.10
2020,04,27,10,59,13.10
2020,04,27,11,00,13.10
2020,04,27,11,01,13.10
2020,04,27,11,02,13.10
2020,04,27,11,03,13.10
2020,04,27,11,04,13.10
2020,04,27,11,05,13.20
2020,04,27,11,06,13.20
2020,04,27,11,07,13.20
2020,04,27,11,08,13.30
2020,04,27,11,09,13.30
2020,04,27,11,10,13.30
2020,04,27,11,11,13.30
2020,04,27,11,12,13.40
2020,04,27,11,13,13.50
2020,04,27,11,14,13.50
2020,04,27,11,15,13.50
2020,04,27,11,16,13.50
2020,04,27,11,17,13.40
2020,04,27,11,18,13.30
2020,04,27,11,19,13.20
2020,04,27,11,20,13.20
2020,04,27,11,21,13.10
2020,04,27,11,22,12.90
2020,04,27,11,23,12.80
2020,04,27,11,24,12.70
2020,04,27,11,25,12.60
2020,04,27,11,26,12.50
2020,04,27,11,27,12.50
2020,04,27,11,28,12.40
2020,04,27,11,29,12.40
2020,04,27,11,30,12.40
2020,04,27,11,31,12.40
2020,04,27,11,32,12.40
2020,04,27,11,33,12.50
2020,04,27,11,34,12.50
2020,04,27,11,35,12.60
2020,04,27,11,36,12.70
2020,04,27,11,37,12.80
2020,04,27,11,38,12.80
2020,04,27,11,39,12.80
2020,04,27,11,40,12.80
2020,04,27,11,41,12.90
2020,04,27,11,42,12.90
2020,04,27,11,43,12.90
2020,04,27,11,44,12.90
2020,04,27,11,45,12.80
2020,04,27,11,46,12.80
2020,04,27,11,47,12.80
2020,04,27,11,48,12.60
2020,04,27,11,49,12.50
2020,04,27,11,50,12.40
2020,04,27,11,51,12.40
2020,04,27,11,52,12.30
2020,04,27,11,53,12.30
2020,04,27,11,54,12.30
2020,04,27,11,55,12.30
2020,04,27,11,56,12.30
2020,04,27,11,57,12.30
2020,04,27,11,58,12.30
2020,04,27,11,59,12.30
2020,04,27,12,00,12.30
2020,04,27,12,01,12.30
2020,04,27,12,02,12.40
2020,04,27,12,03,12.50
2020,04,27,12,04,12.50
2020,04,27,12,05,12.40
2020,04,27,12,06,12.30
2020,04,27,12,07,12.30
2020,04,27,12,08,12.30
2020,04,27,12,09,12.30
2020,04,27,12,10,12.30
2020,04,27,12,11,12.40
2020,04,27,12,12,12.50
2020,04,27,12,13,12.60
2020,04,27,12,14,12.60
2020,04,27,12,15,12.70
2020,04,27,12,16,12.60
2020,04,27,12,17,12.70
2020,04,27,12,18,12.70
2020,04,27,12,19,12.70
2020,04,27,12,20,12.80
2020,04,27,12,21,12.80
2020,04,27,12,22,12.80
2020,04,27,12,23,12.90
2020,04,27,12,24,13.00
2020,04,27,12,25,13.10
2020,04,27,12,26,13.20
2020,04,27,12,27,13.30
2020,04,27,12,28,13.30
2020,04,27,12,29,13.40
2020,04,27,12,30,13.50
2020,04,27,12,31,13.60
2020,04,27,12,32,13.60
2020,04,27,12,33,13.50
2020,04,27,12,34,13.40
2020,04,27,12,35,13.30
2020,04,27,12,36,13.30
2020,04,27,12,37,13.30
2020,04,27,12,38,13.40
2020,04,27,12,39,13.40
2020,04,27,12,40,13.40
2020,04,27,12,41,13.40
2020,04,27,12,42,13.30
2020,04,27,12,43,13.20
2020,04,27,12,44,13.20
2020,04,27,12,45,13.20
2020,04,27,12,46,13.20
2020,04,27,12,47,13.10
2020,04,27,12,48,13.00
2020,04,27,12,49,13.00
2020,04,27,12,50,12.90
2020,04,27,12,51,12.90
2020,04,27,12,52,13.00
2020,04,27,12,53,13.00
2020,04,27,12,54,13.00
2020,04,27,12,55,13.10
2020,04,27,12,56,13.20
2020,04,27,12,57,13.10
2020,04,27,12,58,13.10
2020,04,27,12,59,13.00
2020,04,27,13,00,13.00
2020,04,27,13,01,13.00
2020,04,27,13,02,13.00
2020,04,27,13,03,13.00
2020,04,27,13,04,12.90
2020,04,27,13,05,12.90
2020,04,27,13,06,12.80
2020,04,27,13,07,12.80
2020,04,27,13,08,12.80
2020,04,27,13,09,12.90
2020,04,27,13,10,12.90
2020,04,27,13,11,13.00
2020,04,27,13,12,13.00
2020,04,27,13,13,13.00
2020,04,27,13,14,13.10
2020,04,27,13,15,13.20
2020,04,27,13,16,13.30
2020,04,27,13,17,13.30
2020,04,27,13,18,13.30
2020,04,27,13,19,13.20
2020,04,27,13,20,13.20
2020,04,27,13,21,13.30
2020,04,27,13,22,13.40
2020,04,27,13,23,13.60
2020,04,27,13,24,13.60
2020,04,27,13,25,13.60
2020,04,27,13,26,13.60
2020,04,27,13,27,13.60
2020,04,27,13,28,13.60
2020,04,27,13,29,13.60
2020,04,27,13,30,13.50
2020,04,27,13,31,13.50
2020,04,27,13,32,13.50
2020,04,27,13,33,13.50
2020,04,27,13,34,13.60
2020,04,27,13,35,13.60
2020,04,27,13,36,13.70
2020,04,27,13,37,13.70
2020,04,27,13,38,13.70
2020,04,27,13,39,13.70
2020,04,27,13,40,13.70
2020,04,27,13,41,13.70
2020,04,27,13,42,13.70
2020,04,27,13,43,13.60
2020,04,27,13,44,13.50
2020,04,27,13,45,13.60
2020,04,27,13,46,13.70
2020,04,27,13,47,13.80
2020,04,27,13,48,13.80
2020,04,27,13,49,13.90
2020,04,27,13,50,13.80
2020,04,27,13,51,13.80
2020,04,27,13,52,13.70
2020,04,27,13,53,13.70
2020,04,27,13,54,13.70
2020,04,27,13,55,13.70
2020,04,27,13,56,13.70
2020,04,27,13,57,13.70
2020,04,27,13,58,13.70
2020,04,27,13,59,13.70
2020,04,27,14,00,13.70
2020,04,27,14,01,13.70
2020,04,27,14,02,13.70
2020,04,27,14,03,13.70
2020,04,27,14,04,13.60
2020,04,27,14,05,13.60
2020,04,27,14,06,13.70
2020,04,27,14,07,13.70
2020,04,27,14,08,13.80
2020,04,27,14,09,13.90
2020,04,27,14,10,14.00
2020,04,27,14,11,14.10
2020,04,27,14,12,14.10
2020,04,27,14,13,14.00
2020,04,27,14,14,13.90
2020,04,27,14,15,13.80
2020,04,27,14,16,13.80
2020,04,27,14,17,13.90
2020,04,27,14,18,13.90
2020,04,27,14,19,14.00
2020,04,27,14,20,14.00
2020,04,27,14,21,14.00
2020,04,27,14,22,14.00
2020,04,27,14,23,14.00
2020,04,27,14,24,13.90
2020,04,27,14,25,13.90
2020,04,27,14,26,13.90
2020,04,27,14,27,13.90
2020,04,27,14,28,14.00
2020,04,27,14,29,14.20
2020,04,27,14,30,14.40
2020,04,27,14,31,14.50
2020,04,27,14,32,14.60
2020,04,27,14,33,14.60
2020,04,27,14,34,14.60
2020,04,27,14,35,14.50
2020,04,27,14,36,14.50
2020,04,27,14,37,14.50
2020,04,27,14,38,14.50
2020,04,27,14,39,14.60
2020,04,27,14,40,14.60
2020,04,27,14,41,14.60
2020,04,27,14,42,14.70
2020,04,27,14,43,14.80
2020,04,27,14,44,14.80
2020,04,27,14,45,14.90
2020,04,27,14,46,15.00
2020,04,27,14,47,15.00
2020,04,27,14,48,15.00
2020,04,27,14,49,14.90
2020,04,27,14,50,14.70
2020,04,27,14,51,14.70
2020,04,27,14,52,14.60
2020,04,27,14,53,14.60
2020,04,27,14,54,14.50
2020,04,27,14,55,14.50
2020,04,27,14,56,14.50
2020,04,27,14,57,14.60
2020,04,27,14,58,14.70
2020,04,27,14,59,14.70
2020,04,27,15,00,14.70
2020,04,27,15,01,14.60
2020,04,27,15,02,14.70
2020,04,27,15,03,14.80
2020,04,27,15,04,14.70
2020,04,27,15,05,14.50
2020,04,27,15,06,14.50
2020,04,27,15,07,14.40
2020,04,27,15,08,14.20
2020,04,27,15,09,14.20
2020,04,27,15,10,14.10
2020,04,27,15,11,14.10
2020,04,27,15,12,14.20
2020,04,27,15,13,14.20
2020,04,27,15,14,14.20
2020,04,27,15,15,14.40
2020,04,27,15,16,14.40
2020,04,27,15,17,14.30
2020,04,27,15,18,14.30
2020,04,27,15,19,14.30
2020,04,27,15,20,14.30
2020,04,27,15,21,14.30
2020,04,27,15,22,14.30
2020,04,27,15,23,14.20
2020,04,27,15,24,14.20
2020,04,27,15,25,14.10
2020,04,27,15,26,14.00
2020,04,27,15,27,14.00
2020,04,27,15,28,13.90
2020,04,27,15,29,13.90
2020,04,27,15,30,13.90
2020,04,27,15,31,14.00
2020,04,27,15,32,14.00
2020,04,27,15,33,14.00
2020,04,27,15,34,14.10
2020,04,27,15,35,14.10
2020,04,27,15,36,14.10
2020,04,27,15,37,14.10
2020,04,27,15,38,14.10
2020,04,27,15,39,14.10
2020,04,27,15,40,14.10
2020,04,27,15,41,13.90
2020,04,27,15,42,13.90
2020,04,27,15,43,13.90
2020,04,27,15,44,13.90
2020,04,27,15,45,13.90
2020,04,27,15,46,13.90
2020,04,27,15,47,13.90
2020,04,27,15,48,13.90
2020,04,27,15,49,13.90
2020,04,27,15,50,13.80
2020,04,27,15,51,13.80
2020,04,27,15,52,13.80
2020,04,27,15,53,13.90
2020,04,27,15,54,13.90
2020,04,27,15,55,13.90
2020,04,27,15,56,14.00
2020,04,27,15,57,14.00
2020,04,27,15,58,14.10
2020,04,27,15,59,14.30
2020,04,27,16,00,14.30
2020,04,27,16,01,14.40
2020,04,27,16,02,14.40
2020,04,27,16,03,14.50
2020,04,27,16,04,14.50
2020,04,27,16,05,14.40
2020,04,27,16,06,14.40
2020,04,27,16,07,14.40
2020,04,27,16,08,14.30
2020,04,27,16,09,14.20
2020,04,27,16,10,14.20
2020,04,27,16,11,14.10
2020,04,27,16,12,14.10
2020,04,27,16,13,14.10
2020,04,27,16,14,14.10
2020,04,27,16,15,14.20
2020,04,27,16,16,14.20
2020,04,27,16,17,14.20
2020,04,27,16,18,14.20
2020,04,27,16,19,14.20
2020,04,27,16,20,14.20
2020,04,27,16,21,14.10
2020,04,27,16,22,13.90
2020,04,27,16,23,13.70
2020,04,27,16,24,13.70
2020,04,27,16,25,13.70
2020,04,27,16,26,13.70
2020,04,27,16,27,13.70
2020,04,27,16,28,13.70
2020,04,27,16,29,13.60
2020,04,27,16,30,13.60
2020,04,27,16,31,13.60
2020,04,27,16,32,13.60
2020,04,27,16,33,13.70
2020,04,27,16,34,13.70
2020,04,27,16,35,13.80
2020,04,27,16,36,13.90
2020,04,27,16,37,14.00
2020,04,27,16,38,14.10
2020,04,27,16,39,14.10
2020,04,27,16,40,14.20
2020,04,27,16,41,14.20
2020,04,27,16,42,14.10
2020,04,27,16,43,14.10
2020,04,27,16,44,14.00
2020,04,27,16,45,14.00
2020,04,27,16,46,14.00
2020,04,27,16,47,14.00
2020,04,27,16,48,14.00
2020,04,27,16,49,14.00
2020,04,27,16,50,14.20
2020,04,27,16,51,14.30
2020,04,27,16,52,14.50
2020,04,27,16,53,14.60
2020,04,27,16,54,14.70
2020,04,27,16,55,14.80
2020,04,27,16,56,14.70
2020,04,27,16,57,14.70
2020,04,27,16,58,14.80
2020,04,27,16,59,14.70
2020,04,27,17,00,14.60
2020,04,27,17,01,14.50
2020,04,27,17,02,14.40
2020,04,27,17,03,14.30
2020,04,27,17,04,14.30
2020,04,27,17,05,14.20
2020,04,27,17,06,14.10
2020,04,27,17,07,14.10
2020,04,27,17,08,14.10
2020,04,27,17,09,14.00
2020,04,27,17,10,13.90
2020,04,27,17,11,13.80
2020,04,27,17,12,13.80
2020,04,27,17,13,13.80
2020,04,27,17,14,13.80
2020,04,27,17,15,13.80
2020,04,27,17,16,13.90
2020,04,27,17,17,13.80
2020,04,27,17,18,13.70
2020,04,27,17,19,13.70
2020,04,27,17,20,13.70
2020,04,27,17,21,13.80
2020,04,27,17,22,13.80
2020,04,27,17,23,13.70
2020,04,27,17,24,13.80
2020,04,27,17,25,13.80
2020,04,27,17,26,13.70
2020,04,27,17,27,13.70
2020,04,27,17,28,13.70
2020,04,27,17,29,13.70
2020,04,27,17,30,13.70
2020,04,27,17,31,13.60
2020,04,27,17,32,13.60
2020,04,27,17,33,13.60
2020,04,27,17,34,13.60
2020,04,27,17,35,13.50
2020,04,27,17,36,13.50
2020,04,27,17,37,13.50
2020,04,27,17,38,13.50
2020,04,27,17,39,13.50
2020,04,27,17,40,13.40
2020,04,27,17,41,13.40
2020,04,27,17,42,13.40
2020,04,27,17,43,13.40
2020,04,27,17,44,13.40
2020,04,27,17,45,13.30
2020,04,27,17,46,13.30
2020,04,27,17,47,13.30
2020,04,27,17,48,13.30
2020,04,27,17,49,13.20
2020,04,27,17,50,13.20
2020,04,27,17,51,13.20
2020,04,27,17,52,13.20
2020,04,27,17,53,13.20
2020,04,27,17,54,13.20
2020,04,27,17,55,13.20
2020,04,27,17,56,13.20
2020,04,27,17,57,13.20
2020,04,27,17,58,13.20
2020,04,27,17,59,13.20
2020,04,27,18,00,13.20
2020,04,27,18,01,13.30
2020,04,27,18,02,13.20
2020,04,27,18,03,13.20
2020,04,27,18,04,13.20
2020,04,27,18,05,13.10
2020,04,27,18,06,13.10
2020,04,27,18,07,13.10
2020,04,27,18,08,13.20
2020,04,27,18,09,13.20
2020,04,27,18,10,13.20
2020,04,27,18,11,13.20
2020,04,27,18,12,13.20
2020,04,27,18,13,13.20
2020,04,27,18,14,13.20
2020,04,27,18,15,13.20
2020,04,27,18,16,13.20
2020,04,27,18,17,13.20
2020,04,27,18,18,13.20
2020,04,27,18,19,13.20
2020,04,27,18,20,13.30
2020,04,27,18,21,13.30
2020,04,27,18,22,13.30
2020,04,27,18,23,13.30
2020,04,27,18,24,13.30
2020,04,27,18,25,13.40
2020,04,27,18,26,13.50
2020,04,27,18,27,13.50